Overview Statistics Trail Chart Weather Telemetry Raw packets
 

This is the latest recevied weather packets stored in our database for station/object OK1JRA-20. If no packets are shown the sender has not sent any weather packets the latest 10 day(s).

<< 15 16 17 18 19 20 21 >>
Time Temp. Humidity Pressure Rain* Wind** Luminosity Snow
1788353400 28.89° C 34% 979.4 hPa - - - -
1788353400 28.89° C 34% 979.4 hPa - - - -
1788352507 28.33° C 34% 979.6 hPa - - - -
1788352500 28.33° C 34% 979.6 hPa - - - -
1788352499 28.33° C 34% 979.6 hPa - - - -
1788352499 28.33° C 34% 979.6 hPa - - - -
1788351599 28.89° C 33% 979.8 hPa - - - -
1788351599 28.89° C 33% 979.8 hPa - - - -
1788350700 29.44° C 32% 979.7 hPa - - - -
1788350699 29.44° C 32% 979.7 hPa - - - -
1788350699 29.44° C 32% 979.7 hPa - - - -
1788349806 30.56° C 30% 979.9 hPa - - - -
1788349801 30.56° C 30% 979.9 hPa - - - -
1788349800 30.56° C 30% 979.9 hPa - - - -
1788349800 30.56° C 30% 979.9 hPa - - - -
1788348900 31.67° C 28% 979.8 hPa - - - -
1788348899 31.67° C 28% 979.8 hPa - - - -
1788348899 31.67° C 28% 979.8 hPa - - - -
1788348005 32.22° C 29% 979.9 hPa - - - -
1788348004 32.22° C 29% 979.9 hPa - - - -
1788348000 32.22° C 29% 979.9 hPa - - - -
1788347999 32.22° C 29% 979.9 hPa - - - -
1788347104 32.22° C 29% 980 hPa - - - -
1788347100 32.22° C 29% 980 hPa - - - -
1788347099 32.22° C 29% 980 hPa - - - -

* Rain since midnight (hover to see other rain measurements)
** Current wind speed in m/s (hover to see current wind gust speed)